Shelton, WA
on Friday, November 16, 2012

Friday
Previous Day Next Day
Daily Summary
 ActualAverage (KOLM)Record (KOLM)
Temperature
Mean Temperature °F 43°F  
Max Temperature 45°F 50°F 64°F (1949)
Min Temperature 37°F 36°F 16°F (2014)
Degree Days
Heating Degree Days 24 22  
Month to date heating degree days 322  
Since 1 July heating degree days 1116  
Cooling Degree Days 0 0  
Month to date cooling degree days 0  
Year to date cooling degree days 106  
Moisture
Dew Point 42°F   
Average Humidity 98    
Maximum Humidity 100    
Minimum Humidity 90    
Precipitation
Precipitation 0.54 in 0.30 in 1.97 in (1956)
Month to date precipitation 4.37  
Year to date precipitation 38.28  
Wind
Wind Speed 2 mph   
Max Wind Speed 6 mph   
Max Gust Speed mph   
Visibility 7 miles   
Events Rain   

Key: T is trace of precipitation, MM is missing value
Source: NWS Daily Summary
Time(PST)TemperatureDew PointHumidity Pressure Visibility Wind DirectionWind SpeedGust SpeedPrecipitationEvents Conditions
12:02 AM 41.0°F 39.2°F 93% 29.92 in 10.0 miles ESE 3.5 mph - N/A   Overcast
12:53 AM 41.0°F 39.9°F 96% 29.93 in 10.0 miles ESE 4.6 mph - N/A   Overcast
1:53 AM 39.9°F 39.9°F 100% 29.93 in 2.5 miles SE 5.8 mph - N/A   Overcast
2:24 AM 39.2°F 39.2°F 100% 29.91 in 5.0 miles Calm Calm - N/A   Overcast
2:53 AM 39.9°F 39.9°F 100% 29.92 in 4.0 miles Calm Calm - N/A   Overcast
3:30 AM 39.2°F 39.2°F 100% 29.89 in 1.8 miles Calm Calm - N/A   Overcast
3:53 AM 39.0°F 39.0°F 100% 29.90 in 1.8 miles Calm Calm - N/A   Overcast
4:12 AM 39.2°F 39.2°F 100% 29.88 in 3.0 miles Calm Calm - N/A   Overcast
4:20 AM 39.2°F 39.2°F 100% 29.88 in 1.8 miles Calm Calm - N/A   Overcast
4:40 AM 39.2°F 39.2°F 100% 29.88 in 3.0 miles Calm Calm - N/A   Overcast
4:53 AM 39.0°F 39.0°F 100% 29.90 in 10.0 miles Calm Calm - N/A   Overcast
5:17 AM 39.2°F 39.2°F 100% 29.88 in 1.8 miles Calm Calm - N/A   Overcast
5:53 AM 39.0°F 39.0°F 100% 29.89 in 1.0 miles ESE 4.6 mph - N/A   Mist
6:53 AM 39.0°F 37.9°F 96% 29.89 in 1.2 miles East 3.5 mph - N/A   Overcast
7:25 AM 37.4°F 37.4°F 100% 29.88 in 2.0 miles Calm Calm - N/A   Overcast
7:53 AM 39.0°F 39.0°F 100% 29.90 in 1.2 miles Calm Calm - N/A   Overcast
8:53 AM 39.0°F 39.0°F 100% 29.90 in 1.0 miles Calm Calm - N/A   Mist
9:21 AM 39.2°F 39.2°F 100% 29.89 in 3.0 miles Calm Calm - N/A   Overcast
9:53 AM 39.9°F 39.9°F 100% 29.90 in 10.0 miles Calm Calm - N/A   Overcast
10:53 AM 41.0°F 39.9°F 96% 29.90 in 10.0 miles Calm Calm - N/A   Overcast
11:12 AM 41.0°F 39.2°F 93% 29.89 in 10.0 miles Calm Calm - N/A   Overcast
11:53 AM 41.0°F 41.0°F 100% 29.88 in 10.0 miles Calm Calm - N/A   Overcast
12:53 PM 45.0°F 42.1°F 90% 29.85 in 10.0 miles Calm Calm - N/A   Overcast
1:53 PM 45.0°F 43.0°F 93% 29.83 in 10.0 miles Calm Calm - 0.01 in Rain Light Rain
2:53 PM 45.0°F 43.0°F 93% 29.81 in 10.0 miles NE 3.5 mph - 0.07 in Rain Light Rain
3:15 PM 44.6°F 44.6°F 100% 29.80 in 10.0 miles Calm Calm - 0.04 in Rain Light Rain
3:20 PM 44.6°F 44.6°F 100% 29.80 in 10.0 miles Calm Calm - 0.05 in Rain Light Rain
3:53 PM 44.1°F 44.1°F 100% 29.80 in 10.0 miles North 4.6 mph - 0.12 in Rain Rain
4:00 PM 44.6°F 44.6°F 100% 29.79 in 8.0 miles NNW 4.6 mph - 0.03 in Rain Heavy Rain
4:27 PM 44.6°F 42.8°F 93% 29.79 in 10.0 miles ENE 3.5 mph - 0.13 in Rain Rain
4:37 PM 44.6°F 42.8°F 93% 29.78 in 10.0 miles ENE 3.5 mph - 0.15 in Rain Light Rain
4:50 PM 44.6°F 44.6°F 100% 29.78 in 10.0 miles Calm Calm - 0.16 in Rain Light Rain
4:53 PM 44.1°F 44.1°F 100% 29.79 in 10.0 miles Calm Calm - 0.17 in Rain Rain
5:35 PM 44.6°F 42.8°F 93% 29.76 in 10.0 miles NE 4.6 mph - 0.02 in Rain Light Rain
5:51 PM 44.6°F 42.8°F 93% 29.76 in 10.0 miles Calm Calm - 0.02 in   Overcast
5:53 PM 44.1°F 44.1°F 100% 29.77 in 10.0 miles NNE 3.5 mph - 0.02 in   Overcast
6:53 PM 44.1°F 44.1°F 100% 29.75 in 10.0 miles Calm Calm - 0.06 in Rain Light Rain
7:08 PM 44.6°F 44.6°F 100% 29.74 in 10.0 miles Calm Calm - 0.00 in Rain Light Rain
7:53 PM 44.1°F 44.1°F 100% 29.74 in 10.0 miles Calm Calm - 0.02 in Rain Light Rain
8:53 PM 44.1°F 44.1°F 100% 29.73 in 10.0 miles Calm Calm - 0.04 in Rain Light Rain
9:26 PM 44.6°F 44.6°F 100% 29.71 in 10.0 miles Calm Calm - 0.01 in Rain Light Rain
9:53 PM 45.0°F 44.1°F 97% 29.72 in 10.0 miles NE 3.5 mph - 0.01 in Rain Light Rain
10:53 PM 45.0°F 44.1°F 97% 29.71 in 10.0 miles Calm Calm - 0.02 in   Overcast
11:53 PM 45.0°F 44.1°F 97% 29.69 in 10.0 miles Calm Calm - 0.00 in Rain Light Rain
Moon Phase
Nov. 16 Nov. 20 Nov. 28 Dec. 06 Dec. 13
Sunrise:07:18 AM (PST) Moon Rise:10:21 AM (PST)11/16
Sunset:04:35 PM (PST) Moon Set:07:39 PM (PST)11/16

Copyright © 2014 The Weather Underground, Inc.